Storm Lake, IA

5:21 PM CDT on September 21, 2017 (GMT -0500)
Storm Lake Municipal

Weather History for KSLB - January, 2015

Change the Weather History Date:

Tuesday, January 6, 2015

  Actual Average Record
Temperature  
Mean Temperature -2 °F -  
Max Temperature 8 °F 27 °F 42 °F (2012)
Min Temperature -13 °F 12 °F -16 °F (2014)
Degree Days  
Heating Degree Days 68    
Moisture  
Dew Point -6 °F    
Average Humidity 78    
Maximum Humidity 85    
Minimum Humidity 70    
Precipitation  
Precipitation 0.00 in - - ()
Sea Level Pressure  
Sea Level Pressure 30.44 in    
Wind  
Wind Speed 14 mph (WNW)    
Max Wind Speed 28 mph    
Max Gust Speed 38 mph    
Visibility 8 miles    
Events Snow    
Averages and records for this station are not official NWS values.
T = Trace of Precipitation, MM = Missing Value Source: NWS Daily Summary

Daily Weather History Graph

Daily Weather History Graph

Search for Another Location

Airport or City:

Trip Planner

Search our weather history database for the weather conditions in past years. The results will help you decide how hot, cold, wet, or windy it might be!

Date:

Astronomy

Jan. 06, 2015 Rise Set
Actual Time 7:50 AM CST 5:02 PM CST
Civil Twilight 7:19 AM CST 5:34 PM CST
Nautical Twilight 6:43 AM CST 6:09 PM CST
Astronomical Twilight 6:09 AM CST 6:44 PM CST
Moon 6:55 PM CST (1/6) 8:25 AM CST (1/6)
Length of Visible Light 10h 15m
Length of Day
9h 11m
Full, 98% of the Moon is Illuminated
Jan 6
Full
Jan 13
Last Quarter
Jan 20
New
Jan 26
First Quarter
Feb 3
Full

Hourly Weather History & Observations

Time (CST) Temp. Windchill Dew Point Humidity Pressure Visibility Wind Dir Wind Speed Gust Speed Precip Events Conditions
12:15 AM -2.2 °F -18.9 °F -5.8 °F 85% 30.29 in 10.0 mi North 10.4 mph - N/A   Partly Cloudy
12:35 AM -4.0 °F -20.2 °F -7.6 °F 85% 30.30 in 10.0 mi North 9.2 mph - N/A   Clear
12:55 AM -4.0 °F -20.2 °F -7.6 °F 85% 30.31 in 10.0 mi NNW 9.2 mph - N/A   Clear
1:15 AM -4.0 °F -22.1 °F -9.4 °F 78% 30.33 in 10.0 mi North 11.5 mph - N/A   Clear
1:35 AM -4.0 °F -21.2 °F -9.4 °F 78% 30.34 in 10.0 mi North 10.4 mph - N/A   Scattered Clouds
1:55 AM -4.0 °F -20.2 °F -9.4 °F 78% 30.35 in 10.0 mi NNW 9.2 mph - N/A   Partly Cloudy
2:15 AM -5.8 °F -23.4 °F -11.2 °F 77% 30.36 in 10.0 mi NNW 10.4 mph - N/A   Clear
2:35 AM -4.0 °F -20.2 °F -7.6 °F 85% 30.37 in 10.0 mi NNW 9.2 mph - N/A   Clear
2:55 AM -5.8 °F -22.4 °F -11.2 °F 77% 30.38 in 10.0 mi NW 9.2 mph - N/A   Partly Cloudy
3:15 AM -7.6 °F -25.7 °F -13.0 °F 77% 30.38 in 10.0 mi NNW 10.4 mph - N/A   Clear
3:35 AM -5.8 °F -22.4 °F -11.2 °F 77% 30.39 in 9.0 mi NW 9.2 mph - N/A   Clear
3:55 AM -5.8 °F -23.4 °F -11.2 °F 77% 30.40 in 10.0 mi NW 10.4 mph - N/A   Clear
4:15 AM -5.8 °F -23.4 °F -11.2 °F 77% 30.41 in 10.0 mi NW 10.4 mph - N/A   Clear
4:35 AM -11.2 °F -29.0 °F -16.6 °F 77% 30.42 in 10.0 mi West 9.2 mph - N/A   Clear
4:55 AM -11.2 °F -32.1 °F -16.6 °F 77% 30.43 in 10.0 mi West 12.7 mph - N/A   Clear
5:15 AM -11.2 °F -32.9 °F -18.4 °F 70% 30.43 in 10.0 mi West 13.8 mph - N/A   Clear
5:35 AM -11.2 °F -32.9 °F -16.6 °F 77% 30.43 in 10.0 mi WNW 13.8 mph - N/A   Clear
5:55 AM -13.0 °F -34.3 °F -18.4 °F 77% 30.44 in 10.0 mi West 12.7 mph - N/A   Clear
6:15 AM -11.2 °F -33.7 °F -18.4 °F 70% 30.44 in 10.0 mi West 15.0 mph - N/A   Clear
6:35 AM -11.2 °F -33.7 °F -16.6 °F 77% 30.44 in 10.0 mi West 15.0 mph - N/A   Clear
6:55 AM -11.2 °F -34.4 °F -18.4 °F 70% 30.46 in 10.0 mi West 16.1 mph - N/A   Clear
7:15 AM -11.2 °F -32.9 °F -16.6 °F 77% 30.46 in 10.0 mi West 13.8 mph - N/A   Clear
7:35 AM -9.4 °F -28.9 °F -16.6 °F 71% 30.47 in 10.0 mi West 11.5 mph - N/A   Clear
7:55 AM -11.2 °F -32.1 °F -16.6 °F 77% 30.46 in 10.0 mi West 12.7 mph - N/A   Clear
8:15 AM -11.2 °F -32.1 °F -16.6 °F 77% 30.46 in 10.0 mi West 12.7 mph - N/A   Clear
8:35 AM -9.4 °F -28.9 °F -14.8 °F 77% 30.46 in 10.0 mi West 11.5 mph - N/A   Clear
8:55 AM -9.4 °F -30.6 °F -14.8 °F 77% 30.47 in 10.0 mi West 13.8 mph - N/A   Clear
9:15 AM -5.8 °F -26.8 °F -11.2 °F 77% 30.47 in 10.0 mi West 15.0 mph - N/A   Clear
9:35 AM -5.8 °F -27.5 °F -11.2 °F 77% 30.47 in 10.0 mi West 16.1 mph - N/A   Clear
9:55 AM -5.8 °F -25.2 °F -9.4 °F 84% 30.46 in 10.0 mi West 12.7 mph - N/A   Clear
10:15 AM -4.0 °F -24.5 °F -9.4 °F 78% 30.47 in 10.0 mi WSW 15.0 mph - N/A   Clear
10:35 AM -4.0 °F -23.7 °F -9.4 °F 78% 30.47 in 10.0 mi WSW 13.8 mph - N/A   Clear
10:55 AM -4.0 °F -25.2 °F -7.6 °F 85% 30.47 in 10.0 mi West 16.1 mph - N/A   Clear
11:15 AM -2.2 °F -23.5 °F -7.6 °F 78% 30.47 in 10.0 mi WSW 17.3 mph - N/A   Clear
11:35 AM -2.2 °F -25.2 °F -5.8 °F 85% 30.46 in 8.0 mi West 20.7 mph - N/A   Clear
11:55 AM -0.4 °F -22.3 °F -5.8 °F 78% 30.44 in 3.0 mi West 19.6 mph 25.3 mph N/A   Haze
12:15 PM -0.4 °F -22.8 °F -4.0 °F 85% 30.44 in 3.0 mi West 20.7 mph - N/A   Haze
12:35 PM 1.4 °F -21.0 °F -4.0 °F 78% 30.43 in 6.0 mi West 21.9 mph - N/A   Haze
12:55 PM 1.4 °F -18.8 °F -2.2 °F 85% 30.42 in 7.0 mi WNW 17.3 mph - N/A   Clear
1:15 PM 1.4 °F -19.4 °F -2.2 °F 85% 30.40 in 9.0 mi WNW 18.4 mph - N/A   Clear
1:35 PM 1.4 °F -18.2 °F -2.2 °F 85% 30.40 in 10.0 mi WNW 16.1 mph - N/A   Clear
1:55 PM 3.2 °F -15.9 °F -2.2 °F 78% 30.39 in 10.0 mi WNW 16.1 mph - N/A   Clear
2:15 PM 3.2 °F -16.5 °F -0.4 °F 85% 30.39 in 10.0 mi West 17.3 mph - N/A   Partly Cloudy
2:35 PM 5.0 °F -14.7 °F -0.4 °F 78% 30.41 in 10.0 mi West 18.4 mph - N/A   Partly Cloudy
2:55 PM 5.0 °F -13.0 °F -0.4 °F 78% 30.40 in 9.0 mi West 15.0 mph - N/A   Partly Cloudy
3:15 PM 5.0 °F -14.2 °F 1.4 °F 85% 30.40 in 10.0 mi West 17.3 mph - N/A   Scattered Clouds
3:35 PM 5.0 °F -14.2 °F 1.4 °F 85% 30.40 in 10.0 mi West 17.3 mph - N/A   Scattered Clouds
3:55 PM 6.8 °F -11.3 °F 1.4 °F 79% 30.41 in 10.0 mi West 16.1 mph - N/A   Clear
4:15 PM 6.8 °F -11.8 °F -0.4 °F 72% 30.41 in 10.0 mi West 17.3 mph - N/A   Clear
4:35 PM 6.8 °F -11.8 °F 1.4 °F 79% 30.41 in 10.0 mi WNW 17.3 mph - N/A   Clear
4:55 PM 6.8 °F -11.8 °F 1.4 °F 79% 30.40 in 10.0 mi West 17.3 mph - N/A   Clear
5:15 PM 8.6 °F -9.5 °F 1.4 °F 73% 30.41 in 10.0 mi West 17.3 mph - N/A   Mostly Cloudy
5:35 PM 8.6 °F -9.5 °F 1.4 °F 73% 30.40 in 10.0 mi West 17.3 mph - N/A   Overcast
5:55 PM 8.6 °F -9.5 °F 3.2 °F 79% 30.41 in 10.0 mi WNW 17.3 mph - N/A   Mostly Cloudy
6:15 PM 8.6 °F -8.9 °F 3.2 °F 79% 30.43 in 4.0 mi WNW 16.1 mph - N/A Snow Light Snow
6:35 PM 8.6 °F -10.0 °F 3.2 °F 79% 30.44 in 4.0 mi NW 18.4 mph 24.2 mph N/A Snow Light Snow
6:55 PM 8.6 °F -11.0 °F 3.2 °F 79% 30.45 in 5.0 mi NW 20.7 mph - N/A Snow Light Snow
7:15 PM 8.6 °F -11.4 °F 3.2 °F 79% 30.46 in 8.0 mi NW 21.9 mph 29.9 mph N/A   Overcast
7:35 PM 8.6 °F -13.4 °F 1.4 °F 73% 30.48 in 7.0 mi NW 27.6 mph 34.5 mph N/A   Overcast
7:55 PM 8.6 °F -12.7 °F 1.4 °F 73% 30.48 in 4.0 mi NW 25.3 mph 38.0 mph N/A   Haze
8:15 PM 8.6 °F -13.1 °F 1.4 °F 73% 30.50 in 5.0 mi NNW 26.5 mph 34.5 mph N/A   Haze
8:35 PM 8.6 °F -13.1 °F 1.4 °F 73% 30.51 in 6.0 mi NNW 26.5 mph - N/A   Haze
8:55 PM 6.8 °F -13.4 °F -0.4 °F 72% 30.53 in 5.0 mi NW 20.7 mph 31.1 mph N/A   Haze
9:15 PM 6.8 °F -15.1 °F -0.4 °F 72% 30.55 in 4.0 mi NNW 25.3 mph 31.1 mph N/A   Haze
9:35 PM 5.0 °F -17.1 °F -0.4 °F 78% 30.56 in 5.0 mi NW 24.2 mph 32.2 mph N/A   Haze
9:55 PM 5.0 °F -17.5 °F -0.4 °F 78% 30.57 in 4.0 mi NNW 25.3 mph 32.2 mph N/A   Haze
10:15 PM 5.0 °F -17.5 °F -2.2 °F 72% 30.58 in 5.0 mi NNW 25.3 mph 32.2 mph N/A   Haze
10:35 PM 5.0 °F -17.1 °F -2.2 °F 72% 30.58 in 4.0 mi NNW 24.2 mph 35.7 mph N/A   Haze
10:55 PM 3.2 °F -19.5 °F -2.2 °F 78% 30.60 in 4.0 mi NNW 24.2 mph 29.9 mph N/A   Haze
11:15 PM 3.2 °F -18.6 °F -4.0 °F 72% 30.61 in 6.0 mi NNW 21.9 mph 29.9 mph N/A   Haze
11:35 PM 3.2 °F -19.5 °F -4.0 °F 72% 30.63 in 2.5 mi NNW 24.2 mph 34.5 mph N/A Snow Light Snow
11:55 PM 1.4 °F -21.0 °F -5.8 °F 72% 30.64 in 9.0 mi NNW 21.9 mph 28.8 mph N/A   Overcast